period_start,C,m1,H,J0,J1,J2,J3,J4,J5,JA,JB,JC,JD,JJ,JK,JN,#
2017-07-27 00:02:57,0.01,0.28,0.00,23.27,27.65,30.53,13.85,46.05,1009.29,2030.95,3370.70,3017.98,3456.99,600.05,591.18,19.20,0000 0000 0000 0000 000000
2017-07-27 00:07:58,-0.00,0.28,0.00,23.27,27.64,30.53,13.84,46.02,1009.29,2030.96,3370.87,3017.99,3456.99,599.73,590.91,19.25,0000 0000 0000 0000 000000
2017-07-27 00:13:00,0.00,0.28,0.00,23.28,27.62,30.51,13.91,46.14,1009.29,2030.98,3370.82,3017.99,3457.00,600.65,591.90,19.30,0000 0000 0000 0000 000000
2017-07-27 00:18:01,-0.00,0.28,0.00,23.28,27.62,30.51,13.81,45.96,1009.29,2030.99,3370.87,3017.99,3457.04,600.07,590.97,19.35,0000 0000 0000 0000 000000
2017-07-27 00:23:02,0.00,0.28,0.00,23.27,27.61,30.52,13.86,45.88,1009.29,2030.99,3370.98,3017.99,3457.14,600.12,591.30,19.40,0000 0000 0000 0000 000000
2017-07-27 00:28:03,0.00,0.28,0.00,23.27,27.60,30.50,13.79,46.07,1009.29,2030.99,3370.97,3017.99,3457.12,599.90,591.07,19.45,0000 0000 0000 0000 000000
2017-07-27 00:33:05,0.00,0.28,0.00,23.27,27.60,30.50,13.82,45.94,1009.29,2030.99,3370.95,3017.99,3457.10,599.88,591.08,19.50,0000 0000 0000 0000 000000
2017-07-27 00:38:06,0.00,0.28,0.00,23.27,27.60,30.50,13.89,46.08,1009.28,2030.99,3370.64,3017.99,3457.05,600.02,591.30,19.55,0000 0000 0000 0000 000000
2017-07-27 00:43:07,-0.00,0.28,0.00,23.27,27.59,30.49,13.84,45.98,1009.29,2031.00,3370.79,3017.99,3457.08,600.26,591.35,19.60,0000 0000 0000 0000 000000
2017-07-27 00:48:08,-0.00,0.28,0.00,23.27,27.58,30.47,13.88,45.87,1009.28,2031.01,3370.69,3017.99,3457.10,600.33,591.56,19.65,0000 0000 0000 0000 000000
2017-07-27 00:53:10,0.01,0.28,0.00,23.27,27.57,30.49,13.72,45.87,1009.29,2031.02,3370.35,3017.99,3457.03,599.16,590.53,19.70,0000 0000 0000 0000 000000
2017-07-27 00:58:10,0.00,0.28,0.00,23.27,27.57,30.51,13.83,46.17,1009.29,2031.04,3370.07,3017.99,3457.06,599.94,591.14,19.75,0000 0000 0000 0000 000000
2017-07-27 01:03:11,0.00,0.28,0.00,23.27,27.57,30.51,13.82,45.98,1009.29,2031.08,3370.25,3017.99,3457.08,599.80,590.97,19.80,0000 0000 0000 0000 000000
2017-07-27 01:08:13,0.00,0.28,0.00,23.27,27.57,30.46,13.94,46.09,1009.29,2031.14,3370.43,3017.99,3457.18,600.31,591.35,19.85,0000 0000 0000 0000 000000
2017-07-27 01:13:14,-0.00,0.28,0.00,23.27,27.56,30.49,13.86,45.92,1009.29,2031.20,3370.46,3018.00,3457.23,599.73,590.94,19.90,0000 0000 0000 0000 000000
2017-07-27 01:18:15,0.05,0.28,0.00,23.27,27.55,30.48,13.83,45.71,1009.29,2031.55,3370.15,3018.00,3457.28,600.08,591.30,19.95,0000 0000 0000 0000 000000
2017-07-27 01:23:16,0.01,0.28,0.00,23.29,27.55,30.47,13.84,45.67,1009.29,2031.87,3370.14,3018.01,3457.54,600.27,591.36,20.00,0000 0000 0000 0000 000000
2017-07-27 01:28:18,-0.01,0.28,0.00,23.27,27.55,30.47,13.86,45.77,1009.29,2031.88,3370.27,3018.01,3457.42,600.19,591.43,20.05,0000 0000 0000 0000 000000
2017-07-27 01:33:19,0.01,0.28,0.00,23.28,27.55,30.46,13.79,45.67,1009.29,2031.89,3370.25,3018.01,3457.57,600.18,591.48,20.11,0000 0000 0000 0000 000000
2017-07-27 01:38:20,0.00,0.28,0.00,23.29,27.55,30.49,13.87,45.75,1009.29,2031.93,3370.11,3018.01,3457.37,600.07,591.23,20.16,0000 0000 0000 0000 000000
2017-07-27 01:43:22,0.00,0.28,0.00,23.30,27.55,30.48,13.85,45.96,1009.29,2031.95,3370.06,3018.01,3457.33,599.99,591.11,20.21,0000 0000 0000 0000 000000
2017-07-27 01:48:23,0.00,0.28,0.00,23.32,27.55,30.47,13.86,45.77,1009.29,2031.95,3370.05,3018.01,3457.34,600.00,591.32,20.26,0000 0000 0000 0000 000000
2017-07-27 01:53:24,0.00,0.28,0.00,23.31,27.55,30.47,13.86,45.94,1009.30,2031.98,3370.06,3018.01,3457.38,600.13,591.22,20.31,0000 0000 0000 0000 000000
2017-07-27 01:58:25,0.00,0.28,0.00,23.31,27.55,30.48,13.84,45.90,1009.32,2031.98,3370.00,3018.00,3457.17,599.52,590.75,20.36,0000 0000 0000 0000 000000
2017-07-27 02:03:27,0.00,0.28,0.00,23.32,27.55,30.46,13.92,45.93,1009.30,2031.99,3370.00,3018.00,3457.13,600.15,591.09,20.41,0000 0000 0000 0000 000000
2017-07-27 02:08:28,0.00,0.28,0.00,23.30,27.54,30.48,13.85,45.91,1009.31,2031.99,3370.00,3018.00,3457.14,600.32,591.72,20.46,0000 0000 0000 0000 000000
2017-07-27 02:13:29,0.00,0.28,0.00,23.32,27.54,30.47,13.82,46.02,1009.30,2031.98,3370.01,3018.00,3457.15,599.81,590.93,20.51,0000 0000 0000 0000 000000
2017-07-27 02:18:31,-0.00,0.28,0.00,23.32,27.53,30.47,13.80,46.00,1009.31,2031.98,3370.02,3018.00,3457.08,600.08,591.09,20.56,0000 0000 0000 0000 000000
2017-07-27 02:23:32,-0.00,0.28,0.00,23.32,27.53,30.49,13.83,46.14,1009.30,2031.98,3370.02,3018.00,3457.09,599.69,590.92,20.61,0000 0000 0000 0000 000000
2017-07-27 02:28:33,-0.00,0.28,0.00,23.32,27.53,30.49,13.88,45.96,1009.30,2031.97,3370.02,3018.01,3457.10,600.08,591.21,20.66,0000 0000 0000 0000 000000
2017-07-27 02:33:35,0.00,0.28,0.00,23.32,27.53,30.47,13.77,45.78,1009.33,2031.96,3370.01,3018.00,3457.03,599.33,590.45,20.71,0000 0000 0000 0000 000000
2017-07-27 02:38:36,0.00,0.28,0.00,23.33,27.53,30.46,13.88,46.16,1009.30,2031.99,3370.01,3018.00,3457.08,600.21,591.14,20.76,0000 0000 0000 0000 000000
2017-07-27 02:43:37,-0.00,0.28,0.00,23.34,27.53,30.48,13.86,46.05,1009.30,2031.97,3370.04,3018.00,3457.07,599.51,590.66,20.81,0000 0000 0000 0000 000000
2017-07-27 02:48:38,0.00,0.28,0.00,23.36,27.54,30.48,13.91,46.01,1009.30,2031.97,3370.01,3018.00,3457.03,600.49,591.53,20.86,0000 0000 0000 0000 000000
2017-07-27 02:53:39,-0.02,0.28,0.00,23.37,27.54,30.49,13.89,46.16,1009.30,2031.82,3370.01,3018.00,3457.00,600.20,591.22,20.91,0000 0000 0000 0000 000000
2017-07-27 02:58:41,-0.02,0.28,0.00,23.39,27.55,30.47,13.87,46.28,1009.30,2031.70,3370.01,3018.00,3457.00,600.07,591.13,20.96,0000 0000 0000 0000 000000
2017-07-27 03:03:42,-0.01,0.28,0.00,23.42,27.55,30.49,13.87,46.08,1009.43,2031.49,3370.00,3017.98,3457.00,600.31,591.28,21.01,0000 0000 0000 0000 000000
2017-07-27 03:08:43,0.02,0.28,0.00,23.44,27.55,30.50,13.79,45.77,1009.68,2031.60,3369.99,3017.98,3456.99,599.55,590.65,21.06,0000 0000 0000 0000 000000
2017-07-27 03:13:44,-0.02,0.28,0.00,23.45,27.56,30.52,13.89,46.10,1009.68,2031.34,3370.00,3017.98,3456.98,600.62,591.72,21.11,0000 0000 0000 0000 000000
2017-07-27 03:18:46,0.00,0.28,0.00,23.45,27.57,30.52,13.80,46.33,1009.73,2031.13,3369.92,3017.72,3456.74,599.87,591.05,21.16,0000 0000 0000 0000 000000
2017-07-27 03:23:47,0.00,0.28,0.00,23.48,27.57,30.53,13.80,46.27,1009.76,2031.06,3369.92,3017.52,3456.38,600.22,591.26,21.21,0000 0000 0000 0000 000000
2017-07-27 03:28:48,0.01,0.28,0.00,23.49,27.58,30.54,13.88,46.41,1009.75,2031.02,3369.77,3017.11,3456.06,600.01,591.01,21.26,0000 0000 0000 0000 000000
2017-07-27 03:33:49,0.00,0.28,0.00,23.50,27.60,30.56,13.82,46.43,1009.75,2031.01,3369.55,3017.03,3456.01,599.89,590.89,21.31,0000 0000 0000 0000 000000
2017-07-27 03:38:50,0.00,0.28,0.00,23.52,27.60,30.57,13.81,46.45,1009.77,2031.00,3369.66,3017.04,3456.00,599.90,590.89,21.36,0000 0000 0000 0000 000000
2017-07-27 03:43:51,0.01,0.28,0.00,23.53,27.61,30.57,13.87,46.57,1009.78,2031.00,3369.14,3017.01,3456.00,600.03,591.02,21.41,0000 0000 0000 0000 000000
2017-07-27 03:48:52,-0.00,0.28,0.00,23.54,27.62,30.60,13.89,46.52,1009.78,2030.99,3369.05,3017.00,3455.99,600.27,591.21,21.46,0000 0000 0000 0000 000000
2017-07-27 03:53:53,0.00,0.28,0.00,23.55,27.63,30.62,13.85,46.49,1009.79,2030.99,3369.00,3017.00,3455.98,600.12,591.25,21.51,0000 0000 0000 0000 000000
2017-07-27 03:58:55,0.00,0.28,0.00,23.56,27.65,30.61,13.81,46.49,1009.79,2030.98,3369.00,3016.98,3455.93,599.98,590.91,21.56,0000 0000 0000 0000 000000
2017-07-27 04:03:56,0.00,0.28,0.00,23.57,27.65,30.63,13.92,46.47,1009.79,2030.95,3369.00,3016.96,3455.48,600.44,591.31,21.61,0000 0000 0000 0000 000000
2017-07-27 04:08:58,0.01,0.28,0.00,23.58,27.67,30.64,13.80,46.41,1009.80,2030.92,3368.99,3016.92,3455.17,599.83,590.57,21.66,0000 0000 0000 0000 000000
2017-07-27 04:13:59,-0.02,0.28,0.00,23.60,27.67,30.66,13.84,46.50,1009.80,2030.81,3368.99,3016.86,3455.06,600.06,590.96,21.71,0000 0000 0000 0000 000000
2017-07-27 04:19:00,-0.02,0.28,0.00,23.61,27.69,30.66,13.76,46.39,1009.86,2030.43,3368.98,3016.59,3455.01,600.11,590.91,21.76,0000 0000 0000 0000 000000
2017-07-27 04:24:01,-0.01,0.28,0.00,23.62,27.70,30.66,13.88,46.55,1009.82,2030.21,3368.95,3016.22,3455.00,599.98,590.79,21.81,0000 0000 0000 0000 000000
2017-07-27 04:29:02,-0.02,0.28,0.00,23.64,27.71,30.67,13.90,46.58,1009.92,2030.05,3368.98,3016.31,3455.00,600.57,591.33,21.86,0000 0000 0000 0000 000000
2017-07-27 04:34:03,0.00,0.28,0.00,23.65,27.72,30.68,13.80,46.50,1009.87,2030.01,3368.80,3016.05,3454.99,599.84,590.71,21.91,0000 0000 0000 0000 000000
2017-07-27 04:39:05,0.00,0.28,0.00,23.67,27.74,30.69,13.76,46.48,1009.93,2030.00,3368.46,3016.00,3454.95,599.85,590.68,21.96,0000 0000 0000 0000 000000
2017-07-27 04:44:06,0.00,0.28,0.00,23.69,27.75,30.71,13.77,46.43,1009.86,2030.00,3368.18,3016.00,3454.92,599.84,590.48,22.01,0000 0000 0000 0000 000000
2017-07-27 04:49:07,0.00,0.28,0.00,23.70,27.77,30.73,13.81,46.31,1009.95,2030.00,3368.02,3016.00,3454.68,600.13,591.01,22.06,0000 0000 0000 0000 000000
2017-07-27 04:54:09,0.01,0.28,0.00,23.70,27.77,30.75,13.87,46.39,1010.20,2030.00,3367.99,3015.93,3454.12,599.96,590.82,22.11,0000 0000 0000 0000 000000
2017-07-27 04:59:10,0.01,0.28,0.00,23.71,27.80,30.79,13.93,46.46,1010.27,2030.00,3367.86,3015.77,3454.01,600.13,591.04,22.16,0000 0000 0000 0000 000000
2017-07-27 05:04:12,0.02,0.28,0.00,23.73,27.81,30.78,13.82,46.33,1010.27,2030.00,3367.33,3015.26,3454.00,600.17,591.18,22.21,0000 0000 0000 0000 000000
2017-07-27 05:09:13,0.00,0.28,0.00,23.74,27.82,30.78,13.77,46.27,1010.27,2030.00,3367.20,3015.06,3453.99,599.77,590.71,22.26,0000 0000 0000 0000 000000
2017-07-27 05:14:15,0.00,0.28,0.00,23.75,27.83,30.79,13.89,46.28,1010.27,2030.00,3367.11,3015.02,3453.89,599.93,590.76,22.31,0000 0000 0000 0000 000000
2017-07-27 05:19:16,0.00,0.28,0.00,23.76,27.85,30.82,13.84,46.13,1010.27,2029.99,3367.03,3015.00,3453.60,600.04,590.91,22.36,0000 0000 0000 0000 000000
2017-07-27 05:24:17,0.01,0.28,0.00,23.78,27.87,30.83,13.80,45.99,1010.27,2029.99,3366.96,3015.00,3453.21,600.37,591.08,22.41,0000 0000 0000 0000 000000
2017-07-27 05:29:18,0.01,0.28,0.00,23.80,27.87,30.84,13.89,46.13,1010.27,2029.99,3366.77,3014.87,3453.02,600.10,590.76,22.46,0000 0000 0000 0000 000000
2017-07-27 05:34:19,0.02,0.29,0.00,23.80,27.90,30.87,13.77,46.24,1010.28,2029.99,3366.31,3014.46,3453.00,599.88,590.61,22.51,0000 0000 0000 0000 000000
2017-07-27 05:39:21,0.01,0.29,0.00,23.82,27.91,30.88,13.88,46.16,1010.29,2029.97,3366.32,3014.14,3452.98,600.35,590.97,22.56,0000 0000 0000 0000 000000
2017-07-27 05:44:22,0.01,0.29,0.00,23.84,27.92,30.88,13.71,46.22,1010.32,2029.98,3366.02,3014.02,3452.80,599.70,590.35,22.61,0000 0000 0000 0000 000000
2017-07-27 05:49:23,0.00,0.29,0.00,23.84,27.93,30.92,13.81,46.14,1010.38,2029.95,3365.99,3014.00,3452.12,600.05,590.90,22.66,0000 0000 0000 0000 000000
2017-07-27 05:54:24,-0.05,0.29,0.00,23.86,27.95,30.93,13.86,46.14,1010.43,2029.58,3365.99,3013.99,3452.00,599.57,590.38,22.71,0000 0000 0000 0000 000000
2017-07-27 05:59:26,0.01,0.28,0.00,23.87,27.96,30.94,13.80,46.03,1010.49,2029.36,3365.98,3013.98,3452.01,600.27,590.89,22.76,0000 0000 0000 0000 000000
2017-07-27 06:04:27,-0.02,0.28,0.00,23.87,27.97,30.94,13.85,46.09,1010.69,2029.22,3365.97,3013.96,3452.00,599.72,590.59,22.81,0000 0000 0000 0000 000000
2017-07-27 06:09:28,-0.01,0.28,0.00,23.88,28.00,30.96,13.83,46.07,1010.72,2029.05,3365.96,3013.88,3451.97,599.89,590.66,22.86,0000 0000 0000 0000 000000
2017-07-27 06:14:29,0.02,0.28,0.00,23.90,28.00,30.98,13.82,45.98,1010.75,2029.01,3365.61,3013.44,3451.80,599.71,590.53,22.91,0000 0000 0000 0000 000000
2017-07-27 06:19:31,0.01,0.28,0.00,23.90,28.02,31.00,13.81,46.17,1010.75,2029.00,3365.31,3013.05,3451.18,599.87,590.65,22.96,0000 0000 0000 0000 000000
2017-07-27 06:24:32,0.00,0.29,0.00,23.92,28.02,31.02,13.85,46.16,1010.76,2029.00,3365.10,3013.01,3451.02,599.86,590.66,23.01,0000 0000 0000 0000 000000
2017-07-27 06:29:33,0.00,0.29,0.00,23.92,28.04,31.02,13.80,46.17,1010.76,2029.00,3365.00,3012.99,3451.00,599.79,590.62,23.06,0000 0000 0000 0000 000000
2017-07-27 06:34:35,0.00,0.29,0.00,23.95,28.05,31.03,13.84,46.22,1010.76,2028.99,3365.00,3012.99,3450.97,599.92,590.58,23.11,0000 0000 0000 0000 000000
2017-07-27 06:39:36,0.00,0.29,0.00,23.97,28.07,31.03,13.77,46.15,1010.76,2028.99,3364.95,3012.97,3450.95,599.63,590.33,23.16,0000 0000 0000 0000 000000
2017-07-27 06:44:37,0.03,0.29,0.00,23.97,28.07,31.04,13.79,46.25,1010.76,2028.99,3364.81,3012.59,3450.38,599.92,590.54,23.21,0000 0000 0000 0000 000000
2017-07-27 06:49:39,0.02,0.29,0.00,23.99,28.10,31.06,13.83,46.15,1010.76,2028.99,3364.16,3012.11,3450.02,599.70,590.46,23.26,0000 0000 0000 0000 000000
2017-07-27 06:54:40,-0.00,0.29,0.00,24.01,28.10,31.06,13.79,46.21,1010.77,2028.97,3364.01,3012.01,3450.00,599.50,590.15,23.31,0000 0000 0000 0000 000000
2017-07-27 06:59:42,0.00,0.29,0.00,24.03,28.12,31.08,13.88,46.21,1010.77,2028.95,3364.00,3011.99,3449.90,600.15,590.61,23.36,0000 0000 0000 0000 000000
2017-07-27 07:04:43,0.01,0.29,0.00,24.05,28.13,31.09,13.83,46.38,1010.77,2028.93,3363.89,3011.88,3449.28,600.11,590.62,23.41,0000 0000 0000 0000 000000
2017-07-27 07:09:44,0.03,0.29,0.00,24.06,28.15,31.12,13.87,46.35,1010.87,2028.88,3363.38,3011.27,3449.01,599.99,590.64,23.46,0000 0000 0000 0000 000000
2017-07-27 07:14:46,-0.03,0.29,0.00,24.07,28.16,31.11,13.78,46.38,1011.20,2028.56,3363.02,3011.01,3448.89,599.64,590.36,23.51,0000 0000 0000 0000 000000
2017-07-27 07:19:47,-0.01,0.29,0.00,24.09,28.17,31.13,13.84,46.38,1011.24,2028.34,3362.98,3010.97,3448.23,600.06,590.84,23.56,0000 0000 0000 0000 000000
2017-07-27 07:24:49,0.01,0.29,0.00,24.10,28.17,31.16,13.79,46.30,1011.24,2028.14,3362.70,3010.66,3448.00,600.14,590.87,23.61,0000 0000 0000 0000 000000
2017-07-27 07:29:50,0.01,0.29,0.00,24.11,28.20,31.17,13.90,46.38,1011.25,2028.06,3362.19,3010.16,3447.97,600.39,591.00,23.66,0000 0000 0000 0000 000000
2017-07-27 07:34:51,0.01,0.29,0.00,24.12,28.20,31.19,13.85,46.33,1011.25,2028.03,3362.01,3010.00,3447.41,600.18,590.91,23.72,0000 0000 0000 0000 000000
2017-07-27 07:39:53,0.00,0.29,0.00,24.12,28.22,31.19,13.85,46.40,1011.26,2028.00,3361.99,3009.99,3447.03,600.18,590.91,23.77,0000 0000 0000 0000 000000
2017-07-27 07:44:54,0.01,0.29,0.00,24.13,28.22,31.18,13.91,46.39,1011.26,2028.00,3361.88,3009.88,3446.98,600.42,590.92,23.82,0000 0000 0000 0000 000000
2017-07-27 07:49:56,0.04,0.29,0.00,24.15,28.24,31.23,13.83,46.44,1011.31,2028.00,3361.22,3009.21,3446.64,599.91,590.61,23.87,0000 0000 0000 0000 000000
2017-07-27 07:54:57,0.00,0.29,0.00,24.15,28.25,31.22,13.89,46.37,1011.42,2028.00,3361.01,3009.03,3446.10,600.07,590.73,23.92,0000 0000 0000 0000 000000
2017-07-27 07:59:58,0.00,0.29,0.00,24.16,28.26,31.24,13.86,46.23,1011.57,2027.99,3361.00,3009.01,3446.00,600.45,591.29,23.97,0000 0000 0000 0000 000000
2017-07-27 08:04:59,-0.00,0.29,0.00,24.17,28.27,31.23,13.75,46.18,1011.63,2027.98,3360.99,3009.00,3446.00,600.00,590.90,24.02,0000 0000 0000 0000 000000
2017-07-27 08:10:01,0.00,0.29,0.00,24.18,28.27,31.25,13.90,46.27,1011.69,2027.98,3360.73,3008.97,3445.96,600.41,591.17,24.07,0000 0000 0000 0000 000000
2017-07-27 08:15:02,0.04,0.30,0.00,24.18,28.30,31.27,13.88,46.34,1011.73,2027.96,3360.04,3008.38,3445.34,600.23,591.05,24.12,0000 0000 0000 0000 000000
2017-07-27 08:20:03,0.01,0.30,0.00,24.19,28.30,31.28,13.91,46.32,1011.72,2027.97,3359.96,3008.05,3445.03,600.21,591.00,24.17,0000 0000 0000 0000 000000
2017-07-27 08:25:04,0.00,0.30,0.00,24.20,28.30,31.31,13.83,46.29,1011.73,2027.97,3359.49,3008.00,3445.00,600.00,590.79,24.22,0000 0000 0000 0000 000000
2017-07-27 08:30:05,0.00,0.30,0.00,24.19,28.32,31.29,13.86,46.28,1011.73,2027.96,3359.04,3008.00,3444.98,600.40,591.23,24.27,0000 0000 0000 0000 000000
2017-07-27 08:35:07,0.00,0.30,0.00,24.20,28.32,31.29,13.79,46.05,1011.73,2027.92,3359.00,3007.97,3444.55,599.79,590.65,24.32,0000 0000 0000 0000 000000
2017-07-27 08:40:08,0.01,0.30,0.00,24.22,28.33,31.32,13.80,46.24,1011.73,2027.80,3358.95,3007.62,3444.02,599.67,590.40,24.37,0000 0000 0000 0000 000000
2017-07-27 08:45:09,0.01,0.30,0.00,24.22,28.35,31.35,13.75,46.15,1011.74,2027.53,3358.22,3007.08,3443.99,599.74,590.64,24.42,0000 0000 0000 0000 000000
2017-07-27 08:50:11,-0.03,0.30,0.00,24.22,28.35,31.34,13.85,46.13,1011.78,2027.29,3358.01,3007.00,3443.86,599.99,590.75,24.47,0000 0000 0000 0000 000000
2017-07-27 08:55:12,0.00,0.30,0.00,24.22,28.36,31.35,13.82,46.16,1011.86,2027.26,3358.00,3007.00,3443.65,599.81,590.70,24.52,0000 0000 0000 0000 000000
2017-07-27 09:00:13,0.01,0.30,0.00,24.23,28.37,31.34,13.77,46.03,1011.85,2027.28,3357.97,3007.00,3443.19,599.95,590.75,24.57,0000 0000 0000 0000 000000
2017-07-27 09:05:14,-0.00,0.30,0.00,24.24,28.37,31.36,13.79,46.10,1011.84,2027.07,3357.66,3006.92,3443.01,600.27,590.96,24.62,0000 0000 0000 0000 000000
2017-07-27 09:10:16,0.01,0.30,0.00,24.25,28.39,31.36,13.85,46.16,1012.07,2027.03,3357.13,3006.56,3442.99,599.77,590.71,24.67,0000 0000 0000 0000 000000
2017-07-27 09:15:17,0.02,0.30,0.00,24.26,28.40,31.37,13.80,46.08,1012.11,2027.02,3357.01,3006.06,3442.89,600.17,591.04,24.72,0000 0000 0000 0000 000000
2017-07-27 09:20:18,0.00,0.30,0.00,24.27,28.40,31.38,13.88,46.12,1012.19,2027.02,3357.00,3006.00,3442.26,600.23,591.10,24.77,0000 0000 0000 0000 000000
2017-07-27 09:25:20,0.01,0.30,0.00,24.29,28.41,31.40,13.86,46.07,1012.21,2027.03,3356.51,3005.94,3442.02,599.88,590.85,24.82,0000 0000 0000 0000 000000
2017-07-27 09:30:21,0.02,0.30,0.00,24.30,28.42,31.39,13.75,46.13,1012.22,2027.00,3356.00,3005.31,3441.67,599.62,590.48,24.87,0000 0000 0000 0000 000000
2017-07-27 09:35:22,0.01,0.30,0.00,24.30,28.42,31.41,13.80,46.13,1012.22,2027.00,3355.69,3005.01,3441.04,599.66,590.51,24.92,0000 0000 0000 0000 000000
2017-07-27 09:40:23,0.00,0.30,0.00,24.30,28.43,31.43,13.85,46.09,1012.22,2027.00,3355.05,3004.97,3440.98,599.95,590.90,24.97,0000 0000 0000 0000 000000
2017-07-27 09:45:25,0.03,0.30,0.00,24.30,28.45,31.43,13.79,46.22,1012.22,2027.00,3354.98,3004.54,3440.46,600.06,590.92,25.02,0000 0000 0000 0000 000000
2017-07-27 09:50:26,0.02,0.31,0.00,24.30,28.45,31.43,13.77,46.13,1012.22,2027.00,3354.25,3004.01,3440.00,599.60,590.48,25.07,0000 0000 0000 0000 000000
2017-07-27 09:55:27,0.00,0.31,0.00,24.31,28.45,31.44,13.84,46.16,1012.22,2027.00,3354.00,3003.94,3439.66,600.33,591.10,25.12,0000 0000 0000 0000 000000
2017-07-27 10:00:28,0.04,0.31,0.00,24.33,28.46,31.46,13.87,46.23,1012.24,2027.00,3353.66,3003.22,3439.03,600.15,590.90,25.17,0000 0000 0000 0000 000000
2017-07-27 10:05:30,0.02,0.31,0.00,24.33,28.47,31.44,13.84,46.12,1012.24,2027.00,3353.03,3002.98,3438.53,600.07,590.83,25.22,0000 0000 0000 0000 000000
2017-07-27 10:10:31,0.02,0.31,0.00,24.32,28.47,31.47,13.87,46.08,1012.24,2026.98,3352.80,3002.35,3438.01,600.01,590.84,25.27,0000 0000 0000 0000 000000
2017-07-27 10:15:32,0.02,0.31,0.00,24.32,28.47,31.47,13.90,46.08,1012.43,2026.99,3352.11,3002.02,3437.76,600.09,591.02,25.32,0000 0000 0000 0000 000000
2017-07-27 10:20:34,0.01,0.31,0.00,24.32,28.49,31.46,13.88,46.08,1012.59,2026.98,3351.99,3001.99,3437.05,600.02,591.07,25.37,0000 0000 0000 0000 000000
2017-07-27 10:25:35,0.03,0.31,0.00,24.32,28.50,31.45,13.80,46.01,1012.65,2026.99,3351.63,3001.54,3436.99,599.97,591.00,25.42,0000 0000 0000 0000 000000
2017-07-27 10:30:36,0.02,0.31,0.00,24.34,28.50,31.47,13.81,46.08,1012.62,2026.98,3351.03,3001.02,3436.30,599.90,590.91,25.47,0000 0000 0000 0000 000000
2017-07-27 10:35:38,0.00,0.31,0.00,24.37,28.50,31.44,13.87,46.10,1012.65,2026.98,3350.98,3000.96,3435.99,599.94,590.84,25.52,0000 0000 0000 0000 000000
2017-07-27 10:40:39,0.05,0.32,0.00,24.40,28.51,31.44,13.87,46.10,1012.70,2026.97,3350.19,3000.25,3435.48,600.07,591.15,25.57,0000 0000 0000 0000 000000
2017-07-27 10:45:40,0.02,0.32,0.00,24.43,28.52,31.43,13.84,46.28,1012.70,2026.97,3349.43,2999.98,3434.88,599.92,590.85,25.62,0000 0000 0000 0000 000000
2017-07-27 10:50:42,0.03,0.32,0.00,24.46,28.52,31.45,13.80,45.98,1012.70,2026.95,3349.00,2999.37,3434.12,600.24,591.13,25.67,0000 0000 0000 0000 000000
2017-07-27 10:55:43,0.00,0.32,0.00,24.51,28.54,31.41,13.84,45.84,1012.71,2026.93,3348.86,2999.00,3434.00,599.84,590.64,25.72,0000 0000 0000 0000 000000
2017-07-27 11:00:44,0.01,0.32,0.00,24.61,28.55,31.24,13.75,45.88,1012.70,2026.86,3348.23,2999.00,3433.82,599.80,590.34,25.77,0000 0000 0000 0000 000000
2017-07-27 11:05:45,0.01,0.32,0.00,24.67,28.56,31.22,13.76,46.03,1012.71,2026.75,3348.01,2998.87,3433.14,599.99,590.46,25.82,0000 0000 0000 0000 000000
2017-07-27 11:10:47,-0.01,0.32,0.00,24.68,28.57,31.28,13.73,45.99,1012.71,2026.43,3347.98,2998.12,3432.99,599.95,590.42,25.87,0000 0000 0000 0000 000000
2017-07-27 11:15:48,0.01,0.32,0.00,24.67,28.59,31.39,13.84,45.94,1012.71,2026.31,3347.65,2998.00,3432.80,600.31,590.75,25.92,0000 0000 0000 0000 000000
2017-07-27 11:20:50,0.01,0.32,0.00,24.64,28.60,31.54,13.82,45.99,1012.71,2026.22,3347.07,2997.97,3432.10,600.52,590.97,25.97,0000 0000 0000 0000 000000
2017-07-27 11:25:51,0.00,0.32,0.00,24.61,28.62,31.62,13.81,45.95,1012.71,2026.13,3347.00,2997.84,3432.00,600.00,590.48,26.02,0000 0000 0000 0000 000000
2017-07-27 11:30:52,0.00,0.32,0.00,24.59,28.62,31.65,13.83,46.10,1012.71,2026.05,3347.00,2997.39,3431.99,600.08,590.60,26.07,0000 0000 0000 0000 000000
2017-07-27 11:35:53,0.01,0.32,0.00,24.57,28.64,31.67,13.80,46.08,1012.72,2026.04,3346.99,2997.04,3431.95,599.70,590.33,26.12,0000 0000 0000 0000 000000
2017-07-27 11:40:54,0.01,0.32,0.00,24.53,28.65,31.71,13.80,45.99,1012.72,2026.03,3346.76,2997.01,3431.47,599.87,590.61,26.17,0000 0000 0000 0000 000000
2017-07-27 11:45:55,0.01,0.32,0.00,24.50,28.65,31.70,13.88,45.99,1012.74,2026.02,3346.07,2996.99,3431.03,600.28,591.02,26.22,0000 0000 0000 0000 000000
2017-07-27 11:50:57,-0.00,0.32,0.00,24.47,28.65,31.70,13.90,46.22,1012.72,2026.00,3346.00,2996.88,3430.99,600.09,590.90,26.27,0000 0000 0000 0000 000000
2017-07-27 11:55:58,0.01,0.32,0.00,24.43,28.65,31.72,13.84,46.05,1012.72,2026.00,3345.98,2996.42,3430.92,600.25,591.10,26.32,0000 0000 0000 0000 000000
2017-07-27 12:00:59,0.03,0.33,0.00,24.40,28.65,31.70,13.82,46.00,1012.73,2026.00,3345.40,2996.05,3430.24,600.02,591.05,26.37,0000 0000 0000 0000 000000
2017-07-27 12:06:00,0.00,0.33,0.00,24.37,28.65,31.68,13.85,46.04,1012.73,2026.01,3344.97,2995.99,3429.97,599.82,590.84,26.42,0000 0000 0000 0000 000000
2017-07-27 12:11:01,0.04,0.33,0.00,24.34,28.65,31.66,13.83,46.07,1012.72,2026.01,3344.25,2995.50,3429.29,599.93,591.02,26.47,0000 0000 0000 0000 000000
2017-07-27 12:16:02,0.01,0.33,0.00,24.31,28.65,31.66,13.83,45.97,1012.72,2026.01,3343.99,2995.02,3428.99,600.17,591.33,26.52,0000 0000 0000 0000 000000
2017-07-27 12:21:04,0.03,0.33,0.00,24.30,28.65,31.64,13.84,45.96,1012.71,2026.01,3343.31,2994.92,3428.32,599.66,590.97,26.57,0000 0000 0000 0000 000000
2017-07-27 12:26:05,0.02,0.33,0.00,24.28,28.64,31.62,13.85,45.98,1012.72,2026.01,3342.98,2994.22,3428.00,600.12,591.29,26.62,0000 0000 0000 0000 000000
2017-07-27 12:31:07,0.01,0.33,0.00,24.27,28.63,31.61,13.84,45.77,1012.72,2026.03,3342.73,2994.01,3427.91,599.79,591.02,26.67,0000 0000 0000 0000 000000
2017-07-27 12:36:08,0.02,0.33,0.00,24.25,28.62,31.60,13.85,45.83,1012.72,2026.03,3342.06,2993.98,3427.18,599.77,591.08,26.72,0000 0000 0000 0000 000000
2017-07-27 12:41:09,0.03,0.33,0.00,24.25,28.62,31.59,13.94,46.14,1012.76,2026.02,3341.65,2993.45,3426.86,600.16,591.48,26.78,0000 0000 0000 0000 000000
2017-07-27 12:46:10,0.25,0.34,0.00,24.25,28.61,31.57,13.81,46.08,1012.80,2026.03,3338.41,2990.94,3424.00,599.92,591.23,26.83,0000 0000 0000 0000 000000
2017-07-27 12:51:11,1.39,0.39,0.00,24.23,28.60,31.54,13.85,45.96,1012.96,2026.01,3317.91,2973.60,3405.16,600.13,591.58,26.88,0000 0000 0000 0000 000000
2017-07-27 12:56:13,1.67,0.47,0.00,24.22,28.60,31.53,13.90,46.00,1013.01,2026.01,3286.61,2946.24,3375.61,600.06,591.63,26.93,0000 0000 0000 0000 000000